Weather History for Los Alamitos, CA

Change the Weather History Date:

Monday, November 12, 2012

  Actual Average Record
Temperature  
Mean Temperature 59 °F -  
Max Temperature 75 °F 72 °F 87 °F (2002)
Min Temperature 43 °F 55 °F 43 °F (2012)
Degree Days  
Heating Degree Days 6    
Growing Degree Days 9 (Base 50)    
Moisture  
Dew Point 25 °F    
Average Humidity 35    
Maximum Humidity 70    
Minimum Humidity 7    
Precipitation  
Precipitation 0.00 in - - ()
Sea Level Pressure  
Sea Level Pressure 30.18 in    
Wind  
Wind Speed 6 mph (NNW)    
Max Wind Speed 14 mph    
Max Gust Speed -    
Visibility 10 miles    
Events      
Averages and records for this station are not official NWS values.
T = Trace of Precipitation, MM = Missing Value Source: NWS Daily Summary

Daily Weather History Graph

Daily Weather History Graph

Search for Another Location

Airport:

Trip Planner

Search our weather history database for the weather conditions in past years. The results will help you decide how hot, cold, wet, or windy it might be!

Date:

Astronomy

Nov. 12, 2012 Rise Set
Actual Time 6:22 AM PST 4:50 PM PST
Civil Twilight 5:55 AM PST 5:16 PM PST
Nautical Twilight 5:25 AM PST 5:46 PM PST
Astronomical Twilight 4:56 AM PST 6:16 PM PST
Moon 4:55 AM PST (11/12) 3:58 PM PST (11/12)
Length of Visible Light 11h 21m
Length of Day
10h 28m
Waning Crescent, 2% of the Moon is Illuminated
Nov 12
Waning Crescent
Nov 13
New
Nov 20
First Quarter
Nov 28
Full
Dec 6
Last Quarter

Hourly Weather History & Observations

Time (PST) Temp. Windchill Dew Point Humidity Pressure Visibility Wind Dir Wind Speed Gust Speed Precip Events Conditions
12:58 AM 48.2 °F - 27.9 °F 45% 30.26 in 10.0 mi NNW 5.8 mph - N/A   Clear
1:58 AM 55.9 °F - 13.3 °F 19% 30.25 in 10.0 mi NNE 8.1 mph - N/A   Clear
2:58 AM 47.8 °F - 30.6 °F 51% 30.24 in 10.0 mi North 5.8 mph - N/A   Clear
3:58 AM 48.2 °F - 26.6 °F 43% 30.23 in 10.0 mi NNW 5.8 mph - N/A   Clear
4:58 AM 46.2 °F - 25.5 °F 44% 30.23 in 10.0 mi North 2.3 mph - N/A   Clear
5:58 AM 44.1 °F - 24.4 °F 46% 30.24 in 10.0 mi Variable 1.2 mph - N/A   Clear
6:58 AM 43.9 °F 40.5 °F 30.7 °F 60% 30.25 in 10.0 mi NW 5.8 mph - N/A   Clear
7:58 AM 52.5 °F - 28.2 °F 39% 30.25 in 10.0 mi NNW 4.6 mph - N/A   Clear
8:58 AM 66.0 °F - 11.5 °F 12% 30.23 in 10.0 mi NE 9.2 mph - N/A   Clear
9:58 AM 68.4 °F - 11.3 °F 11% 30.22 in 10.0 mi NNE 10.4 mph - N/A   Clear
10:58 AM 71.1 °F - 8.8 °F 9% 30.19 in 10.0 mi NE 9.2 mph - N/A   Clear
11:58 AM 73.8 °F - 6.3 °F 7% 30.15 in 10.0 mi Variable 5.8 mph - N/A   Clear
12:58 PM 74.1 °F - 14.5 °F 10% 30.14 in 10.0 mi NW 5.8 mph - N/A   Clear
1:58 PM 75.6 °F - 13.3 °F 9% 30.12 in 10.0 mi WNW 5.8 mph - N/A   Clear
2:58 PM 75.9 °F - 13.6 °F 9% 30.10 in 10.0 mi WNW 9.2 mph - N/A   Clear
3:58 PM 71.2 °F - 30.0 °F 22% 30.11 in 10.0 mi West 13.8 mph - N/A   Clear
4:58 PM 64.6 °F - 24.3 °F 22% 30.11 in 10.0 mi West 8.1 mph - N/A   Clear
5:58 PM 61.0 °F - 26.4 °F 27% 30.13 in 10.0 mi WNW 2.3 mph - N/A   Clear
6:58 PM 56.5 °F - 28.0 °F 34% 30.14 in 10.0 mi NNE 2.3 mph - N/A   Clear
7:58 PM 56.1 °F - 38.1 °F 51% 30.16 in 10.0 mi Calm Calm - N/A   Clear
8:58 PM 52.5 °F - 39.2 °F 61% 30.16 in 10.0 mi NNW 2.3 mph - N/A   Clear
9:58 PM 51.3 °F - 40.3 °F 66% 30.16 in 10.0 mi NW 3.5 mph - N/A   Clear
10:58 PM 51.6 °F - 41.0 °F 67% 30.14 in 10.0 mi NNE 3.5 mph - N/A   Clear
11:58 PM 47.3 °F - 37.9 °F 70% 30.12 in 10.0 mi North 2.3 mph - N/A   Clear